Regional Weather Roundup
Issued by NWS Lake Charles, LA

Home | Current Version | Previous Version | Text Only | Print | Product List | Glossary On
Versions: 1 2 3 4 5 6 7 8 9 10 11 12 13 14 15 16 17 18 19 20 21 22 23 24 25 26 27 28 29 30 31 32 33 34 35 36 37 38 39 40 41 42 43 44 45 46 47 48 49 50
801
ASUS44 KLCH 202110
RWRLCH
REGIONAL WEATHER ROUNDUP
NATIONAL WEATHER SERVICE LAKE CHARLES LA
400 PM CDT SUN AUG 20 2017

Note: "fair" indicates few or no clouds below 12,000 feet with no
significant weather and/or obstructions to visibility.


ACROSS SOUTHEAST TEXAS

CITY           SKY/WX    TMP DP  RH WIND       PRES   REMARKS
BEAUMONT       CLOUDY    85  77  77 CALM      29.97F
BEAUMONT CITY  FAIR      82  74  77 MISG      29.99F
ORANGE         CLOUDY    81  78  91 CALM      30.00F
JASPER           N/A     84  76  77 E3        30.02S
$$

ACROSS CENTRAL LOUISIANA

CITY           SKY/WX    TMP DP  RH WIND       PRES   REMARKS
LEESVILLE      CLOUDY    79  75  86 N3        30.01R
FULLERTON      MOCLDY    84  76  76 CALM      29.99R THUNDER
ALEXANDRIA INT LGT RAIN  93  75  55 N5        29.98F HX 104
ESLER FIELD    CLOUDY    92  75  57 SE8       29.99F HX 103
DERIDDER       FAIR      87  74  66 CALM      30.01S
OAKDALE        PTCLDY    93  75  55 SE5       29.98S HX 103
OPELOUSAS      FAIR      91  73  56 SE7       29.98F
$$

ACROSS SOUTHWEST AND SOUTH CENTRAL LOUISIANA

CITY           SKY/WX    TMP DP  RH WIND       PRES   REMARKS
SULPHUR        CLOUDY    89  74  62 SW7       29.99F
LAKE CHARLES   CLOUDY    90  77  65 SW8       29.97F HX 103
CHENNAULT INT  PTSUNNY   93  77  59 E3        29.97F HX 107
CAMERON PHI    CLEAR     86  75  70 S5        29.98F
DEQUINCY       MOCLDY    84  74  73 CALM      30.00S
JENNINGS       FAIR      92  74  54 SE6       29.98S HX 102
LAFAYETTE      PTSUNNY   94  76  55 CALM      29.98F HX 106
NEW IBERIA     SUNNY     93  70  46 SE7       29.98F
ABBEVILLE      NOT AVBL
PATTERSON      SUNNY     93  77  59 VRB6      29.98F HX 107
SALT POINT       N/A     92  77  61 VRB5      29.96F HX 105
$$

SELECTED SITES ACROSS THE REGION

CITY           SKY/WX    TMP DP  RH WIND       PRES   REMARKS
HOUSTON BUSH   MOSUNNY   95  71  45 E7        29.96F HX 102
HOUSTON HOBBY  CLOUDY    88  73  61 S8        29.97S
GALVESTON      SUNNY     90  77  65 E9        29.98F HX 103
COLLEGE STAT   SUNNY     97  66  36 VRB6      29.95F HX 100
CONROE         SUNNY     96  68  39 VRB7      29.97F HX 101
HUNTSVILLE     MOSUNNY   95  65  37 CALM      29.97F
LUFKIN         MOSUNNY   93  70  46 SE3       29.96F
SHREVEPORT     CLOUDY    80  76  87 CALM      30.01R
MONROE         PTSUNNY   95  73  48 SE8       29.99F HX 104
NATCHEZ MS     MOSUNNY   91  75  59 VRB5      30.01F HX 101
BATON ROUGE    MOSUNNY   94  73  50 E6        29.98F HX 103
N.O. INTL ARPT MOSUNNY   94  69  44 N7        29.98F
SLIDELL        MOSUNNY   93  72  50 CALM      29.99F HX 101
$$

MARINE REPORTS

STATION/POSITION TIME  SKY/WX   TEMP    WIND        PRES    VSBY
                                AIR SEA DIR/SP/G
                 (UTC)          (F)     (DEG/KT/KT) (MB)    (MI)
BUOY 30 S HIGH I 1950            86 89   90/  6/  8 1015.8
WVE H/P(F/S)=  1/ 4

SEA RIM ST PARK  2000            86     140/  4/  5 1016.3F
PORT ARTHUR      2048            87 89  150/  4/  6 1015.5F
SABINE PASS N    2042            87 90  120/  4/  5 1016.8F
TEXAS POINT      NOT AVBL
CALCASIEU PASS   2048               88  190/  4/  5 1014.7F
LK CHARLES BEACH 2048            89 87              1015.5F
MARSH ISLAND     2000            86                   N/A
FRESH WATER LOCK 2048            87 89  140/  8/ 10 1015.5F
AMERADA PASS     2048            87 88  120/  6/ 12 1015.4F
$$




USA.gov is the U.S. government's official web portal to all federal, state and local government web resources and services.